Content
SEND FEEDBACK

Daily
Averages
Monthly
Summary
United States of America

CHICAGO, ILLINOIS


Home > North America > United States > Illinois
Elevation: 674 feet     Latitude: 41 59N     Longitude: 087 54W

WEATHER
 
SELECT A DAY
Number of Records: 197,256;   Date Range: 7/8/95 - 9/30/14
 
SHARE

PRINT THIS DATA

[ ← Previous Day ]
WEATHER ALMANAC - NOVEMBER 5, 2013
[ Next Day → ]
[ °C ]   °F
Weather ElementAverageHighLow
Temperature54.3 °F57 °F (9:52 pm)51.1 °F (5:52 am)
Dewpoint47.1 °F50 °F (1:35 pm)43 °F (1:52 am)
Humidity76.9 %89 % (4:52 pm)67 % (9:52 pm)
Barometer30.16 in30.28 in (7:52 am)29.97 in (11:52 pm)
Wind Speed11 mph23 mph (9:52 pm)
Wind Gust32.2 mph (9:52 pm)
Weather ElementAverage
Visibility8.7 mi
Wind DirectionS (176 °)

Weather ElementTotal
Precipitation0.03 in
Heating Degree Days11 (Base 65)
Growing Degree Days4.1 (Base 50)
Averaged from 30 records on November 5, 2013
WEATHER CONDITIONS BREAKOUT
WIND DIRECTION BREAKOUT
WEATHER BY HOUR - NOVEMBER 5, 2013
[ °C ]   °F
Local TimeTemperatureDewpointHumidityBarometerVisibilityWind DirectionWind SpeedGust SpeedPrecipitationEventsConditions
1:52 AM53.1 °F43.0 °F69 %30.23 in10.0 miSouth (190°)4.6 mphOvercast
2:52 AM53.1 °F44.1 °F71 %30.23 in10.0 miSouth (190°)4.6 mphOvercast
3:52 AM53.1 °F44.1 °F71 %30.25 in10.0 miSouth (180°)5.8 mphOvercast
4:52 AM53.1 °F44.1 °F71 %30.25 in10.0 miSouth (180°)4.6 mphOvercast
5:52 AM51.1 °F45.0 °F80 %30.26 in10.0 miSouth (170°)5.8 mphOvercast
6:52 AM52.0 °F45.0 °F77 %30.27 in10.0 miSouth (180°)5.8 mphOvercast
7:52 AM53.1 °F45.0 °F74 %30.28 in10.0 miSouth (180°)9.2 mphOvercast
8:52 AM54.0 °F45.0 °F72 %30.27 in10.0 miSouth (180°)8.1 mphMostly Cloudy
9:52 AM55.9 °F46.0 °F69 %30.28 in10.0 miSouth (190°)8.1 mphOvercast
10:52 AM55.9 °F46.9 °F72 %30.27 in10.0 miSouth (180°)10.4 mphOvercast
11:52 AM55.9 °F46.9 °F72 %30.25 in10.0 miSouth (190°)10.4 mphOvercast
12:14 PM55.4 °F46.4 °F72 %30.23 in9.0 miSouth (180°)11.5 mphOvercast
12:52 PM55.9 °F46.9 °F72 %30.22 in7.0 miSouth (170°)13.8 mphOvercast
1:35 PM55.4 °F50.0 °F82 %30.20 in6.0 miSouth (180°)10.4 mph20.7 mph0.00 inRainLight Rain
1:52 PM55.0 °F50.0 °F83 %30.19 in8.0 miSouth (180°)8.1 mph0.00 inOvercast
2:52 PM55.0 °F50.0 °F83 %30.17 in7.0 miSouth (170°)13.8 mph0.00 inRainLight Rain
3:44 PM55.4 °F48.2 °F77 %30.15 in9.0 miSouth (170°)12.7 mphOvercast
3:52 PM55.0 °F48.9 °F80 %30.15 in8.0 miSouth (170°)10.4 mph0.00 inRainLight Rain
4:29 PM53.6 °F50.0 °F88 %30.14 in6.0 miSSE (160°)10.4 mph0.01 inRainLight Rain
4:52 PM53.1 °F50.0 °F89 %30.13 in7.0 miSSE (160°)9.2 mph0.01 inRainLight Rain
5:52 PM54.0 °F48.9 °F83 %30.12 in8.0 miSSE (160°)9.2 mph0.01 inOvercast
6:52 PM54.0 °F46.9 °F77 %30.10 in10.0 miSouth (170°)11.5 mphScattered Clouds
7:52 PM54.0 °F46.0 °F75 %30.07 in10.0 miSouth (170°)10.4 mphMostly Cloudy
8:52 PM55.0 °F45.0 °F69 %30.04 in10.0 miSSE (160°)13.8 mphMostly Cloudy
9:52 PM57.0 °F46.0 °F67 %30.03 in10.0 miSouth (180°)23.0 mph32.2 mphOvercast
10:08 PM55.4 °F48.2 °F77 %30.02 in8.0 miSouth (180°)19.6 mph31.1 mph0.00 inRainLight Rain
10:36 PM53.6 °F48.2 °F82 %30.01 in3.0 miSouth (180°)18.4 mph31.1 mph0.00 inHaze
10:52 PM54.0 °F50.0 °F86 %29.99 in7.0 miSouth (180°)18.4 mph27.6 mph0.00 inOvercast
11:13 PM53.6 °F50.0 °F88 %29.98 in9.0 miSouth (170°)16.1 mphOvercast
11:52 PM55.0 °F48.9 °F80 %29.97 in10.0 miSouth (180°)12.7 mph23.0 mphOvercast
Hourly data recorded from KPWK, located miles away from Chicago, Illinois







STORIES FROM OUR PARTNERS